GW1174 Weather Reports


time (UTC)temp
C
wind
direction
speed
KPH
gust
KPH
rain 1hr
cm
rain 24hr
cm
rain mn
cm
humidity
%
barometer
mb
20260509215517 11 338 1.6 4.8 0.00 0.00 0.00 77 1016.2
20260509214517 11 0.0 6.4 0.00 0.00 0.00 77 1016.1
20260509213537 12 0.0 3.2 0.00 0.00 0.00 77 1016.4
20260509212537 12 158 1.6 6.4 0.00 0.00 0.00 77 1016.5
20260509211517 12 0.0 1.6 0.00 0.00 0.00 77 1016.6
20260509210517 12 0.0 6.4 0.00 0.00 0.00 77 1016.6
20260509205517 12 113 1.6 8.0 0.00 0.00 0.00 77 1016.5
20260509204517 12 0.0 4.8 0.00 0.00 0.00 78 1016.5
20260509203517 12 0.0 0.0 0.00 0.00 0.00 79 1016.7
20260509202517 12 0.0 0.0 0.00 0.00 0.00 79 1016.5
20260509201537 12 0.0 0.0 0.00 0.00 0.00 78 1016.4
20260509200537 12 0.0 0.0 0.00 0.00 0.00 77 1016.4
20260509195517 12 0.0 0.0 0.00 0.00 0.00 76 1016.5
20260509194517 12 0.0 0.0 0.00 0.00 0.00 75 1016.3
20260509193517 13 0.0 0.0 0.00 0.00 0.00 75 1016.3
20260509192517 13 0.0 0.0 0.00 0.00 0.00 74 1016.2
20260509191516 13 0.0 0.0 0.00 0.00 0.00 73 1016.1
20260509190537 13 0.0 0.0 0.00 0.00 0.00 72 1016.0
20260509185517 14 0.0 0.0 0.00 0.00 0.00 70 1015.9
20260509184516 15 0.0 0.0 0.00 0.00 0.00 69 1015.8
20260509183516 16 0.0 0.0 0.00 0.00 0.00 67 1015.8
20260509182516 16 0.0 0.0 0.00 0.00 0.00 66 1015.7
20260509181516 17 0.0 0.0 0.00 0.00 0.00 64 1015.8
20260509180537 17 0.0 0.0 0.00 0.00 0.00 61 1015.5
20260509175517 17 0.0 0.0 0.00 0.00 0.00 61 1015.5
20260509174517 18 0.0 1.6 0.00 0.00 0.00 59 1015.6
20260509173536 18 0.0 3.2 0.00 0.00 0.00 58 1015.5
20260509172537 18 0.0 3.2 0.00 0.00 0.00 57 1015.4
20260509171516 18 68 1.6 6.4 0.00 0.00 0.00 57 1015.5
20260509170516 19 0.0 3.2 0.00 0.00 0.00 57 1015.6
20260509165519 20 0.0 3.2 0.00 0.00 0.00 55 1015.8
20260509164516 20 0.0 1.6 0.00 0.00 0.00 55 1015.8
20260509163516 19 0.0 4.8 0.00 0.00 0.00 53 1015.7
20260509162516 20 0.0 1.6 0.00 0.00 0.00 51 1015.7
20260509161516 20 0.0 3.2 0.00 0.00 0.00 52 1015.7
20260509160516 20 0.0 3.2 0.00 0.00 0.00 56 1016.0
20260509155516 20 0.0 3.2 0.00 0.00 0.00 54 1015.9
20260509154516 21 45 1.6 6.4 0.00 0.00 0.00 52 1016.0
20260509153516 21 248 1.6 6.4 0.00 0.00 0.00 52 1016.2
20260509152516 21 180 1.6 3.2 0.00 0.00 0.00 50 1016.1
20260509151516 20 0 1.6 4.8 0.00 0.00 0.00 49 1016.1
20260509150516 20 315 1.6 4.8 0.00 0.00 0.00 51 1016.2
20260509145516 20 293 3.2 11.3 0.00 0.00 0.00 54 1016.4
20260509144516 20 23 1.6 4.8 0.00 0.00 0.00 53 1016.5
20260509143516 21 248 4.8 11.3 0.00 0.00 0.00 50 1016.6
20260509142556 20 203 1.6 4.8 0.00 0.00 0.00 51 1016.6
20260509141516 20 270 3.2 6.4 0.00 0.00 0.00 52 1016.6
20260509140516 19 0.0 4.8 0.00 0.00 0.00 58 1016.7
20260509135516 19 293 1.6 3.2 0.00 0.00 0.00 55 1016.9
20260509134536 20 0.0 4.8 0.00 0.00 0.00 56 1017.0
20260509133516 19 248 1.6 6.4 0.00 0.00 0.00 55 1017.1
20260509132536 19 270 3.2 6.4 0.00 0.00 0.00 61 1017.3
20260509131516 18 270 4.8 9.7 0.00 0.00 0.00 57 1017.4
20260509130516 18 270 4.8 9.7 0.00 0.00 0.00 58 1017.7
20260509125516 18 248 4.8 9.7 0.00 0.00 0.00 58 1017.6
20260509124556 18 315 3.2 9.7 0.00 0.00 0.00 59 1017.5
20260509123516 18 338 1.6 6.4 0.00 0.00 0.00 57 1017.6
20260509122516 19 225 4.8 12.9 0.00 0.00 0.00 58 1017.9
20260509121636 18 315 1.6 4.8 0.00 0.00 0.00 60 1017.8
20260509120516 18 315 1.6 4.8 0.00 0.00 0.00 58 1018.0
20260509115516 18 293 1.6 4.8 0.00 0.00 0.00 63 1018.0
20260509114516 17 315 3.2 8.0 0.00 0.00 0.00 61 1018.1
20260509113516 19 113 1.6 6.4 0.00 0.00 0.00 64 1018.2
20260509112516 18 158 3.2 9.7 0.00 0.00 0.00 59 1018.3
20260509111516 18 0.0 3.2 0.00 0.00 0.00 60 1018.2
20260509110536 17 45 3.2 12.9 0.00 0.00 0.00 63 1018.3
20260509105516 17 0.0 3.2 0.00 0.00 0.00 62 1018.5
20260509104516 17 0.0 6.4 0.00 0.00 0.00 64 1018.6
20260509103515 17 248 4.8 9.7 0.00 0.00 0.00 65 1018.7
20260509102535 17 270 3.2 11.3 0.00 0.00 0.00 65 1018.7
20260509101518 16 158 4.8 9.7 0.00 0.00 0.00 64 1018.8
20260509100517 17 158 4.8 11.3 0.00 0.00 0.00 68 1018.8
20260509095518 16 180 4.8 9.7 0.00 0.00 0.00 67 1018.8
20260509094518 16 203 4.8 8.0 0.00 0.00 0.00 68 1019.1
20260509093517 17 158 3.2 8.0 0.00 0.00 0.00 66 1019.1
20260509092516 17 225 3.2 8.0 0.00 0.00 0.00 70 1019.0
20260509091517 16 158 3.2 8.0 0.00 0.00 0.00 70 1019.0
20260509090518 16 158 6.4 12.9 0.00 0.00 0.00 69 1019.1
20260509085517 16 180 1.6 4.8 0.00 0.00 0.00 70 1019.3
20260509084518 16 158 4.8 14.5 0.00 0.00 0.00 72 1019.2
20260509083518 15 45 1.6 6.4 0.00 0.00 0.00 75 1019.0
20260509082517 15 45 1.6 8.0 0.00 0.00 0.00 74 1019.2
20260509081517 14 68 1.6 6.4 0.00 0.00 0.00 77 1019.1
20260509080517 14 0.0 4.8 0.00 0.00 0.00 78 1019.2
20260509075517 13 23 1.6 6.4 0.00 0.00 0.00 79 1019.1
20260509074518 13 0 1.6 4.8 0.00 0.00 0.00 80 1019.0
20260509073517 13 0 1.6 6.4 0.00 0.00 0.00 84 1019.0
20260509072517 12 45 1.6 6.4 0.00 0.00 0.00 86 1019.2
20260509071517 12 45 1.6 8.0 0.00 0.00 0.00 90 1019.1
20260509070518 11 0.0 3.2 0.00 0.00 0.00 92 1019.0
20260509065517 11 0.0 1.6 0.00 0.00 0.00 93 1018.9
20260509064517 10 0.0 3.2 0.00 0.00 0.00 94 1019.1
20260509063540 10 23 1.6 8.0 0.00 0.00 0.00 94 1019.0
20260509062517 9 45 1.6 3.2 0.00 0.00 0.00 95 1018.9
20260509061517 8 0.0 4.8 0.00 0.00 0.00 94 1018.7
20260509060517 8 0.0 3.2 0.00 0.00 0.00 94 1018.7
20260509055517 7 0 1.6 3.2 0.00 0.00 0.00 94 1018.6
20260509054517 6 0.0 3.2 0.00 0.00 0.00 94 1018.5
20260509053517 6 0 1.6 3.2 0.00 0.00 0.00 94 1018.5
20260509052517 6 0.0 3.2 0.00 0.00 0.00 94 1018.3
20260509051518 5 0.0 3.2 0.00 0.00 0.00 93 1018.3
20260509050517 5 0.0 0.0 0.00 0.00 0.00 93 1018.2
20260509045517 5 0.0 1.6 0.00 0.00 0.00 93 1018.3
20260509044517 5 0.0 0.0 0.00 0.00 0.00 93 1018.3
20260509043540 5 0.0 0.0 0.00 0.00 0.00 93 1018.3
20260509042537 5 0.0 0.0 0.00 0.00 0.00 93 1018.3
20260509041517 5 0.0 0.0 0.00 0.00 0.00 93 1018.3
20260509040517 5 0.0 0.0 0.00 0.00 0.00 93 1018.3
20260509035517 5 0.0 0.0 0.00 0.00 0.00 93 1018.3
20260509034517 5 0.0 1.6 0.00 0.00 0.00 93 1018.4
20260509033517 5 0.0 0.0 0.00 0.00 0.00 93 1018.3
20260509032517 5 0.0 0.0 0.00 0.00 0.00 93 1018.4
20260509031517 5 0.0 1.6 0.00 0.00 0.00 93 1018.3
20260509030517 5 0.0 1.6 0.00 0.00 0.00 93 1018.3
20260509025556 5 0.0 3.2 0.00 0.00 0.00 93 1018.5
20260509024517 5 0.0 0.0 0.00 0.00 0.00 93 1018.3
20260509023517 5 0.0 0.0 0.00 0.00 0.00 92 1018.5
20260509022600 5 0.0 0.0 0.00 0.00 0.00 92 1018.6
20260509021516 5 0.0 3.2 0.00 0.00 0.00 92 1018.6
20260509020536 5 0.0 3.2 0.00 0.00 0.00 92 1018.3
20260509015516 5 0.0 0.0 0.00 0.00 0.00 92 1018.4
20260509014516 5 0.0 1.6 0.00 0.00 0.00 92 1018.2
20260509013516 5 0.0 0.0 0.00 0.00 0.00 92 1018.2
20260509012516 5 0.0 0.0 0.00 0.00 0.00 92 1018.2
20260509011516 5 0.0 0.0 0.00 0.00 0.00 92 1018.2
20260509010516 5 0.0 0.0 0.00 0.00 0.00 92 1018.5
20260509005557 5 0.0 0.0 0.00 0.00 0.00 92 1018.4
20260509004516 5 0.0 3.2 0.00 0.00 0.00 91 1018.6
20260509003516 5 0.0 0.0 0.00 0.00 0.00 91 1018.2
20260509002519 6 0.0 1.6 0.00 0.00 0.00 91 1018.2
20260509001516 6 0.0 3.2 0.00 0.00 0.00 91 1018.2
20260509000516 6 0.0 3.2 0.00 0.00 0.00 91 1018.3
20260508235516 6 0.0 0.0 0.00 0.00 0.00 91 1018.2
20260508234516 6 0.0 0.0 0.00 0.00 0.00 91 1018.3
20260508233516 6 0.0 0.0 0.00 0.00 0.00 91 1018.5
20260508232516 6 0.0 0.0 0.00 0.00 0.00 91 1018.4
20260508231516 6 0.0 0.0 0.00 0.00 0.00 90 1018.5
20260508230539 6 0.0 0.0 0.00 0.00 0.00 90 1018.4
20260508225516 6 0.0 1.6 0.00 0.00 0.00 90 1018.4
20260508224536 6 0.0 0.0 0.00 0.00 0.00 90 1018.5
20260508223516 6 0.0 0.0 0.00 0.00 0.00 90 1018.5
20260508222516 7 0.0 0.0 0.00 0.00 0.00 89 1018.5
20260508221516 7 0.0 1.6 0.00 0.00 0.00 89 1018.6
20260508220516 7 0.0 1.6 0.00 0.00 0.00 89 1018.5